Preview of NWS' New Version of Forecast
This preview is not operational and should not be used for support decisions.

Regional Weather Roundup (RWR)

Issued by National Weather Service (NWS)

                            
000
ASUS44 KMEG 162210
RWRTN 
TENNESSEE HOURLY STATE WEATHER ROUNDUP
NATIONAL WEATHER SERVICE MEMPHIS TN
400 PM CST SAT FEB 16 2019

TNZ002-004-019-021-049-052-054-088>092-162300-
WEST TENNESSEE
  
CITY           SKY/WX    TMP DP  RH WIND       PRES   REMARKS
MEMPHIS INTL   PTSUNNY   41  32  70 NE8       29.85F                  
NWS MEMPHIS      N/A     38 N/A N/A MISG        N/A                   
JACKSON        CLOUDY    40  33  76 E6        29.89F                  
DYERSBURG      CLOUDY    35  30  82 E8        29.91F WCI  29          
SOMERVILLE     CLOUDY    37  32  81 VRB6G15   29.84F WCI  33          
COVINGTON      CLOUDY    37  34  87 E12       29.87F WCI  30          
UNION CITY     CLOUDY    34  30  86 NE10      29.89F WCI  26          
PARIS          CLOUDY    34  32  93 NE8       29.90F WCI  27          
HUNTINGDON     CLOUDY    36  32  87 NE10      29.89F WCI  28          
SELMER         CLOUDY    37  34  87 NE6       29.86F WCI  33          
SAVANNAH       CLOUDY    39  34  81 VRB5      29.87F                  
$$

TNZ008-025-027-028-033-062-065-066-162300-
NORTH MIDDLE TENNESSEE
  
CITY           SKY/WX    TMP DP  RH WIND       PRES   REMARKS
NASHVILLE      CLOUDY    44  32  62 N6        29.90S                  
DICKSON        CLOUDY    37  32  81 NE7       29.88S WCI  32          
CLARKSVILLE    CLOUDY    38  30  73 E3        29.92S                  
LEBANON        CLOUDY    43  34  70 E8        29.89R                  
SMYRNA         FAIR      42  35  76 NE6       29.91S                  
MURFREESBORO   CLOUDY    39  34  81 NE6       29.89R WCI  35          
COOKEVILLE     CLOUDY    39  34  81 N6        29.88R WCI  35          
LIVINGSTON     CLOUDY    37  34  87 NE6       29.87R WCI  33          
GALLATIN       CLOUDY    45  32  61 NE6       29.93R                  
CROSSVILLE     CLOUDY    36  33  89 NE6       29.86R FOG     WCI  31  
ROCKWOOD       CLOUDY    39  36  87 VRB6      29.85R WCI  35          
$$

TNZ061-075-076-078-094-096-097-162300-
SOUTH MIDDLE TENNESSEE
  
CITY           SKY/WX    TMP DP  RH WIND       PRES   REMARKS
LAWRENCEBURG   CLOUDY    36  34  93 N7        29.88R WCI  30          
LEWISBURG      CLOUDY    37  34  87 NE7       29.89S WCI  32          
FAYETTEVILLE   CLOUDY    39  37  93 N8        29.86S WCI  34          
TULLAHOMA      CLOUDY    37  36  93 NE5       29.86S WCI  34          
WINCHESTER     CLOUDY    41  37  87 N5        29.87R                  
MCMINNVILLE    CLOUDY    39  36  87 N7        29.88R WCI  34          
COLUMBIA       CLOUDY    39  37  93 E8        29.88R WCI  34          
SHELBYVILLE    CLOUDY    37  36  93 NE5       29.89S WCI  34          
$$

TNZ017-018-042-046-047-162300-
NORTHEAST TENNESSEE
  
CITY           SKY/WX    TMP DP  RH WIND       PRES   REMARKS
TRI CITIES     CLOUDY    47  38  71 N3        29.85R                  
ELIZABETHTON   CLOUDY    46  43  87 CALM      29.84R                  
GREENEVILLE    CLOUDY    45  39  81 CALM      29.83S                  
$$

TNZ012-013-036-069-073-074-162300-
CENTRAL EAST TENNESSEE
  
CITY           SKY/WX    TMP DP  RH WIND       PRES   REMARKS
KNOXVILLE      CLOUDY    46  40  79 N8        29.83R                  
OAK RIDGE        N/A     46  39  76 VRB3      29.88R                  
DOWNTOWN KNOXV CLOUDY    48  41  76 N5        29.86R                  
GATLINBURG     CLOUDY    46  41  81 NE6       29.84R                  
MORRISTOWN     CLOUDY    48  39  71 VRB5      29.83R                  
JACKSBORO      CLOUDY    41  36  81 VRB3      29.91R                  
$$

TNZ083-085-099-162300-
SOUTHEAST TENNESSEE
  
CITY           SKY/WX    TMP DP  RH WIND       PRES   REMARKS
CHATTANOOGA    CLOUDY    50  40  68 NW3       29.85R                  
DAYTON         CLOUDY    48  41  76 N6        29.85R                  
$$

SKY/WX REPORTED AS FAIR MEANS FEW OR NO CLOUDS BELOW
12 THOUSAND FEET.